Location: Aydie
(43.5695°N, 0.1043°W)
Time: 12:40:53
(UTC+00:00)

Cosmos 1725 Rocket - Pass Details

Date: 17 November 2025
Orbit: 961 x 989 km, 82.9° (Epoch: 11 December)

Event Time Altitude Azimuth Distance (km) Brightness Sun altitude
Rises 16:59:07 0° 192° (SSW) 3,663 7.5 -5.1°
Reaches altitude 10° 17:01:37 10° 194° (SSW) 2,723 6.9 -5.5°
Maximum altitude 17:07:51 73° 279° (W) 1,028 4.4 -6.6°
Drops below altitude 10° 17:14:11 10° 4° (N) 2,756 6.1 -7.6°
Sets 17:16:44 0° 7° (N) 3,711 6.8 -8.1°
